Overview Statistics Trail Chart Weather Telemetry Raw packets
 

This is the latest recevied weather packets stored in our database for station/object K9COE-11. If no packets are shown the sender has not sent any weather packets the latest 10 day(s).

<< 159 160 161 162 163 164 165 >>
Time Temp. Humidity Pressure Rain* Wind** Luminosity Snow
1788052615 28.33° C 47% - 0 mm - - -
1788052483 28.33° C - - - - - -
1788052351 28.89° C 46% - 0 mm - - -
1788052219 28.33° C 46% - 0 mm - - -
1788051951 28.33° C 46% - 0 mm - - -
1788051804 28.89° C 46% - 0 mm - - -
1788051540 28.89° C 46% - 0 mm - - -
1788051401 28.89° C 46% - 0 mm - - -
1788051263 28.89° C 46% - 0 mm - - -
1788051131 29.44° C 45% - 0 mm - - -
1788050993 28.89° C 45% - 0 mm - - -
1788050861 28.89° C 46% - 0 mm - - -
1788050598 28.89° C 45% - 0 mm - - -
1788050458 28.89° C 45% - 0 mm - - -
1788050188 29.44° C - - - - - -
1788050056 29.44° C 43% - 0 mm - - -
1788049664 30.56° C 38% - 0 mm - - -
1788049647 29.44° C 42% - 0 mm - - -
1788049587 31.11° C 40% - 0 mm - - -
1788049246 30.56° C 38% - 0 mm - - -
1788049106 30.56° C 39% - 0 mm - - -
1788048968 30.56° C 40% - 0 mm - - -
1788048836 30.56° C 39% - 0 mm - - -
1788048704 30.56° C 40% - 0 mm - - -
1788048566 30.56° C 41% - 0 mm - - -

* Rain latest 24 hours (hover to see other rain measurements)
** Current wind speed in m/s (hover to see current wind gust speed)